Regional Weather Roundup
Issued by NWS

Home | Current Version | Previous Version | Text Only | Print | Product List | Glossary On
Versions: 1 2 3 4 5 6 7 8 9 10 11 12 13 14 15 16 17 18 19 20 21 22 23 24 25 26 27 28 29 30 31 32 33 34 35 36 37 38 39 40 41 42 43 44 45 46 47 48 49 50
000
ASUS46 KSTO 241609
RWRCA

NORTHERN AND CENTRAL CA REGIONAL WEATHER ROUNDUP
NATIONAL WEATHER SERVICE SACRAMENTO CA
800 AM PST FRI FEB 24 2017

NOTE: FAIR INDICATES FEW OR NO CLOUDS BELOW 12,000 FEET WITH NO
SIGNIFICANT WEATHER AND/OR OBSTRUCTIONS TO VISIBILITY.

CAZ001-003-241700-
NORTHWEST AREA

CITY           SKY/WX    TMP DP  RH WIND       PRES   REMARKS
CRESCENT CITY  CLOUDY    37  33  85 SE6       30.26R WCI  32
ARCATA         NOT AVBL
SHELTER COVE   NOT AVBL
UKIAH          SUNNY     32  30  92 CALM      30.27R
$$

CAZ006-505>513-241700-
BAY AREA

CITY           SKY/WX    TMP DP  RH WIND       PRES   REMARKS
SANTA ROSA     SUNNY     33  33 100 NW3       30.25R
SAN RAFAEL     N/A       37  MM  MM MISG
NAPA           SUNNY     37  33  85 CALM      30.26R
CONCORD        SUNNY     39  36  89 SE5       30.26R
OAKLAND CITY   N/A      MM  MM  MM MISG
OAKLAND        MOSUNNY   43  39  86 SE9       30.26R
SAN FRAN CITY  N/A       44  MM  77 MISG
SAN FRAN ARPT  MOSUNNY   44  37  76 CALM      30.25R
LIVERMORE      SUNNY     35  31  85 E3        30.25R
HAYWARD        SUNNY     42  34  73 SE7       30.26R
REDWOOD CITY   N/A       MM  MM  MM MISG
MOFFETT ARPT   SUNNY     41  35  79 SE5       30.28R
SAN JOSE ARPT  MOSUNNY   40  35  83 SE6       30.27R
$$
CAZ034-037-514>518-241700-
CENTRAL COAST

CITY           SKY/WX    TMP DP  RH WIND       PRES   REMARKS
WATSONVILLE    SUNNY     38  36  92 CALM      30.28R
SALINAS        SUNNY     38  34  85 SE8       30.28R WCI  32
MONTEREY       SUNNY     45  36  70 S5        30.27R
PT PIEDRAS BLS NOT AVBL
SAN LUIS OBISP SUNNY     45  35  68 NW10      30.24R
SANTA MARIA    MOSUNNY   44  35  70 N10       30.22R
$$
CAZ015-016-241700-
NORTHERN SACRAMENTO VALLEY

CITY           SKY/WX    TMP DP  RH WIND       PRES   REMARKS
REDDING        MOSUNNY   33  28  81 E3        30.23R
RED BLUFF      MOSUNNY   35  28  75 N5        30.26R WCI  31
OROVILLE       MOSUNNY   39  33  79 E3        30.27R
$$
CAZ016>018-241700-
SOUTHERN SACRAMENTO VALLEY

CITY           SKY/WX    TMP DP  RH WIND       PRES   REMARKS
AUBURN         SUNNY     36  27  69 E7        30.22R WCI  30
BEALE AFB      MOSUNNY   38  33  83 CALM      30.25R
LINCOLN        FAIR      36  32  87 NE3       30.26R
SAC INTL ARPT  SUNNY     36  35  96 N6        30.26R WCI  31
MATHER AIRPORT SUNNY     36  32  87 CALM      30.26R
DOWNTOWN SAC   N/A       40  MM  MM MISG
SAC EXEC ARPT  SUNNY     37  33  85 CALM      30.26R
VACAVILLE      SUNNY     39  37  92 SW3       30.27R
TRAVIS AFB     SUNNY     37  35  94 W5        30.24R WCI  33
$$
CAZ019>021-241700-
SAN JOAQUIN VALLEY

CITY           SKY/WX    TMP DP  RH WIND       PRES   REMARKS
STOCKTON       SUNNY     38  36  92 CALM      30.25R
MODESTO        SUNNY     41  33  73 CALM      30.25R
MERCED         SUNNY     37  33  85 CALM      30.25R
LEMOORE        MOSUNNY   34  32  92 CALM      30.26R
FRESNO         SUNNY     36  34  92 E5        30.26R WCI  32
HANFORD        SUNNY     36  35  96 CALM      30.26R
PORTERVILLE    SUNNY     37  36  96 SE3       30.27R
BAKERSFIELD    SUNNY     40  34  79 E6        30.25R
$$
CAZ011-012-071-241700-
NORTHERN MOUNTAINS

CITY           SKY/WX    TMP DP  RH WIND       PRES   REMARKS
YREKA          SUNNY     22  20  92 W5        30.19R WCI  16
MOUNT SHASTA   SUNNY     20  13  74 CALM      30.13R
ALTURAS        MOSUNNY   19  15  84 CALM      30.11R
$$
CAZ011-012-071-241700-
SIERRA NEVADA MTNS

CITY           SKY/WX    TMP DP  RH WIND       PRES   REMARKS
BLUE CANYON    MOSUNNY   25   8  48 CALM      30.08R
TRUCKEE        FOG        3   0  85 CALM      30.08R VSB 1/4
TAHOE VLY ARPT FAIR       5   2  87 S6        30.04R WCI  -6
MAMMOTH LAKES  FAIR       9  -2  60 CALM      30.02R
$$




USA.gov is the U.S. government's official web portal to all federal, state and local government web resources and services.